SL-16 R/B, 23343

Orbit data source: Space-Track

SL-16 R/B, 23343 is space debris in SSO originally from a launch on Fri, 04 Nov 1994 UTC launched from the Tyuratam Missile And Space Complex (TTMTR). Debris objects in space refer to the collection of defunct objects orbiting the Earth. Examples of debris include non-operational satellites, rocket bodies, and fragments generated from explosions, collisions, or faulty payload assembly.

Loading next visibility...
Identifier
23343, 1994-074B
Orbit
SSO
Country
Flag of CISCIS
Related business
Manufacturer
Yuzhnoe
Mission
Spacecraft
Bus & Motor
11S772, Unknown motor
Mass
9,000 kg wet, 9,000 kg dry
Launch date (UTC)
1994-11-04 (32 years ago)
Launch vehicle
Unknown
Launch site
Tyuratam Missile And Space Complex (TTMTR)
Object type
Payload
Rocket body
Debris
Shape & HBR
Cyl, 5.2 m
Radar Cross Section
37.829 m², Large (>1 m²)

Expand to show TLE details & history
Last TLE update: 5 hours ago

TLE from 5 hours ago
0 SL-16 R/B
1 23343U 94074B   26163.83988756  .00000387  00000-0  58332-4 0  9994
2 23343  97.6992 190.7418 0005078 271.9365 260.9952 14.79498836701316
Epoch: 2026-06-12T20:09Z
TLE epoch observation values (Epoch: 2026-06-12T20:09:26.285Z)
Latitude
6.98556°
Longitude
168.1627°
Altitude
633.856 km
Speed
7.542 km/s
True Right ascension
00h 46m 44s
True Declination
6° 56' 36"
Sunlit
Object was in daylight at epoch
Visualization orbit readout
Latitude
Unknown
Longitude
Unknown
Altitude
Unknown
Speed
Unknown
Apparent Right ascension
Unknown
Apparent Declination
Unknown
Sunlit
N/A
Visualization observer readout
Local Sidereal Time
11:31:48
Azimuth
Unknown
Elevation
Unknown
Doppler factor
Unknown
Orbital elements
Apogee altitude
631.497 km
Perigee altitude
624.381 km
Semi-major axis
7,006.076 km
Eccentricity
0.00051
Inclination
97.6992°
RAAN
190.7418°
Arg. of periapsis
271.9365°
True anomaly
260.93773°
Mean anomaly
260.9952°
Eccentric anomaly
260.96647°
Mean motion
3.7011 °/min
Orbital period
97.27 mins
BSTAR
0.000058332
Loading maneuver chart data...
Computing Atmospheric mass density...

Documentation

Showing up to 5 results
|